User: anonymous   Login
Location: *
(49.7115°N, 15.0136°E)
Time: 17:35:49
(UTC+00:00)
Language:

STARLINK-64 - Orbit

View from above orbital plane
View from above orbital plane
View from above satellite
View from above satellite

Ground track
Ground track

The orbit data is extracted from the following two-line orbital elements,

1 44275C 19029AS  20152.26416821  .00009333  00000-0  24630-3 0  1520
2 44275  52.9908 265.4862 0004670 255.9167   2.5294 15.37878025    11
Epoch (UTC): 31 May 2020 06:20:24
Eccentricity: 0.0004670
inclination: 52.9908°
perigee height: 449 km
apogee height: 455 km
right ascension of ascending node: 265.4862°
argument of perigee: 255.9167°
revolutions per day: 15.37878025
mean anomaly at epoch: 2.5294°
orbit number at epoch: 1

The dashed part of the orbit path shows where the satellite is in the earth's shadow,  

DLR